Date,TemperatureHighF,TemperatureAvgF,TemperatureLowF,DewpointHighF,DewpointAvgF,DewpointLowF,HumidityHigh,HumidityAvg,HumidityLow,PressureMaxIn,PressureMinIn,WindSpeedMaxMPH,WindSpeedAvgMPH,GustSpeedMaxMPH,PrecipitationSumIn
2013-5-1,81.3,58.4,34.5,46.1,36.0,11.9,99,57,12,29.92,29.76,15,4,15,0.00
2013-5-2,88.7,62.8,37.2,53.8,41.1,29.2,99,58,17,29.91,29.75,10,2,10,0.00
2013-5-3,81.3,61.1,43.9,48.7,41.4,33.7,99,58,23,29.88,29.77,17,4,17,0.00
2013-5-4,84.2,59.9,38.7,53.9,42.4,35.0,99,64,22,29.81,29.65,15,4,15,0.00
2013-5-5,78.1,56.4,40.1,46.2,42.8,37.5,99,69,28,29.73,29.64,15,4,15,0.00
2013-5-6,85.1,60.5,42.1,55.7,50.0,41.6,99,74,38,29.69,29.57,13,3,13,0.00
2013-5-7,86.4,64.5,46.8,62.9,55.9,46.3,99,78,45,29.60,29.49,18,4,18,0.00
2013-5-8,83.3,62.7,54.7,81.7,62.0,54.4,99,98,74,29.51,29.36,15,4,15,0.80
2013-5-9,84.6,64.2,54.3,75.1,58.5,54.0,99,85,45,29.42,29.32,11,2,11,0.25
2013-5-10,96.1,73.7,54.1,65.2,58.2,50.3,99,66,27,29.44,29.31,16,3,16,0.07
2013-5-11,84.6,67.7,59.9,74.9,66.2,59.1,99,96,63,29.35,29.13,31,3,31,1.04
2013-5-13,67.5,52.1,39.2,34.5,29.4,21.9,82,47,25,29.56,29.45,21,8,21,0.00
2013-5-14,73.8,53.4,32.5,37.9,28.3,9.7,99,51,13,29.60,29.46,15,4,15,0.00
2013-5-15,86.4,64.0,42.6,62.7,51.0,34.0,94,67,38,29.51,29.11,14,3,14,0.00
2013-5-16,94.5,74.8,58.1,67.4,59.4,42.9,99,65,31,29.27,29.14,13,3,13,0.00
2013-5-17,85.1,69.0,51.3,49.8,42.4,33.5,92,43,21,29.63,29.27,102,5,102,0.00
2013-5-18,76.3,59.9,50.4,59.7,54.9,46.8,99,85,50,29.74,29.63,8,2,8,0.00
2013-5-19,62.1,57.9,54.1,61.8,57.7,53.7,99,99,99,29.73,29.59,8,2,8,0.30
2013-5-20,91.6,72.0,57.7,81.9,66.5,57.1,99,86,54,29.62,29.39,10,2,10,0.01
2013-5-21,97.0,72.6,60.8,76.3,67.4,60.3,99,87,50,29.41,29.34,8,2,8,0.00
2013-5-24,70.0,54.2,43.2,69.7,53.9,42.7,99,99,95,29.44,29.14,23,7,23,0.47
2013-5-25,64.6,34.1,-31.0,47.3,23.0,-34.0,99,70,42,29.47,29.38,34,12,34,1.62
2013-5-26,74.8,60.2,45.0,42.1,36.8,27.6,87,48,24,29.65,29.45,33,10,33,0.22
2013-5-27,87.3,63.9,39.0,47.6,39.2,25.9,99,51,17,29.70,29.57,15,4,15,0.00
2013-5-28,68.0,58.0,47.5,62.0,55.2,47.2,99,91,62,29.66,29.55,8,2,8,0.38
2013-5-29,101.0,75.1,58.3,80.5,66.5,58.0,99,80,41,29.56,29.43,15,3,15,0.01
2013-5-30,105.0,86.2,68.7,72.3,68.0,60.8,99,62,29,29.57,29.49,12,4,12,0.00
2013-5-31,105.0,85.7,66.0,73.6,67.8,59.1,99,62,29,29.57,29.42,11,3,11,0.00